Flag for Vietnam Weather past 2 weeks in Hanoi, Vietnam

64 °F


Feels Like: 64 °F
Forecast: 60 / 69 °F
Wind: 3 mph from Northeast

Location: Ha Noi Airport

Current Time: Nov 26, 2015 at 6:16:24 PM

Latest Report: Nov 26, 2015 at 5:30 PM

Visibility: 10 mi

Pressure: 30.12 "Hg

Humidity: 64%

Dew point: 52 °F

Location of HanoiLocation

Historic Weather in Hanoi — Graph


Hanoi temperature yesterday

Maximum temperature yesterday: 79 °F (at 10:30 AM)
Minimum temperature yesterday: 63 °F (at 9:00 PM)
Average temperature yesterday: 72 °F

Past Weeks' High & Low Weather Summary

High93 °F (Nov 17, 12:00 PM)94% (Nov 11, 11:30 PM)30.24 "Hg (Nov 11, 11:30 PM)
Low59 °F (Nov 26, 1:30 AM)39% (Nov 17, 1:00 PM)29.71 "Hg (Nov 16, 2:30 PM)
Average77 °F79%29.95 "Hg
* Reported Nov 11 5:00 PM — Nov 26 5:00 PM, Hanoi, Weather by CustomWeather, © 2015

Note: Actual official high and low records may vary slightly from our data, if they occured in-between our weather recording intervals... More about our weather records


Hanoi weather history for previous 24 hours

Time TempWeatherWind HumidityBarometerVisibility
5:00 PM
Thu, Nov 26
66 °FPassing clouds.5 mph52%30.12 "HgN/A
4:30 PM66 °FSunny.6 mph49%30.12 "Hg10 mi
4:00 PM66 °FPassing clouds.6 mph52%30.12 "HgN/A
3:30 PM66 °FSunny.7 mph49%30.12 "Hg10 mi
3:00 PM66 °FPassing clouds.5 mph46%30.12 "HgN/A
2:30 PM66 °FPassing clouds.6 mph49%30.12 "HgN/A
2:00 PM66 °FPassing clouds.6 mph49%30.12 "HgN/A
1:30 PM66 °FPassing clouds.6 mph52%30.12 "HgN/A
1:00 PM64 °FPassing clouds.6 mph52%30.15 "HgN/A
12:30 PM64 °FSunny.6 mph52%30.18 "Hg10 mi
12:00 PM64 °FPassing clouds.6 mph52%30.18 "HgN/A
11:30 AM63 °FSunny.7 mph56%30.21 "Hg10 mi
10:30 AM63 °FPartly sunny.9 mph56%30.21 "HgN/A
10:00 AM63 °FPartly sunny.10 mph56%30.24 "HgN/A
9:30 AM61 °FPartly sunny.8 mph63%30.24 "HgN/A
9:00 AM61 °FPartly sunny.8 mph63%30.24 "HgN/A
8:30 AM61 °FPartly sunny.12 mph72%30.24 "HgN/A
8:00 AM61 °FPartly sunny.13 mph68%30.21 "HgN/A
7:30 AM61 °FPartly sunny.13 mph72%30.21 "HgN/A
7:00 AM59 °FPartly sunny.13 mph82%30.21 "HgN/A
6:00 AM59 °FLight rain. Passing clouds.10 mph82%30.18 "Hg6 mi
5:30 AM59 °FLight rain. Passing clouds.13 mph82%30.18 "Hg5 mi
5:00 AM59 °FPassing clouds.13 mph82%30.18 "HgN/A
4:30 AM59 °FPassing clouds.12 mph82%30.15 "Hg5 mi
4:00 AM59 °FRain. Passing clouds.8 mph88%30.15 "Hg4 mi
3:30 AM59 °FRain. Passing clouds.12 mph88%30.15 "Hg3 mi
3:00 AM59 °FLight rain. Partly cloudy.12 mph88%30.15 "Hg4 mi
2:30 AM59 °FLight rain. Partly cloudy.10 mph88%30.15 "Hg4 mi
2:00 AM59 °FLight rain. Partly cloudy.12 mph82%30.18 "Hg4 mi
1:30 AM59 °FRain. Partly cloudy.14 mph88%30.18 "Hg3 mi
1:00 AM61 °FPassing clouds.10 mph83%30.15 "Hg6 mi
12:30 AM61 °FPassing clouds.10 mph83%30.15 "HgN/A
12:00 AM63 °FPassing clouds.13 mph73%30.15 "HgN/A
10:00 PM
Wed, Nov 25
63 °FLight rain. Passing clouds.10 mph83%30.15 "HgN/A
9:30 PM63 °FLight rain. Passing clouds.10 mph83%30.15 "HgN/A
9:00 PM63 °FLight rain. Passing clouds.14 mph83%30.15 "Hg5 mi
8:30 PM64 °FLight rain. Passing clouds.14 mph73%30.15 "HgN/A
8:00 PM64 °FPassing clouds.16 mph78%30.12 "HgN/A
7:30 PM64 °FPassing clouds.16 mph78%30.12 "HgN/A
7:00 PM64 °FPassing clouds.17 mph78%30.09 "HgN/A
6:30 PM66 °FPassing clouds.17 mph73%30.09 "HgN/A
6:00 PM66 °FPartly cloudy.16 mph78%30.07 "HgN/A
Weather by CustomWeather, © 2015

See weather overviewHow to use our weather pages